THORAD DELTA 1 DEB, 8163

Orbit data source: Space-Track

THORAD DELTA 1 DEB, 8163 is space debris in SSO originally from a launch on Fri, 15 Nov 1974 UTC launched from the Air Force Western Test Range (AFWTR). Debris objects in space refer to the collection of defunct objects orbiting the Earth. Examples of debris include non-operational satellites, rocket bodies, and fragments generated from explosions, collisions, or faulty payload assembly.

Loading next visibility...
Identifier
8163, 1974-089AD
Orbit
SSO
Country
Flag of USUS
Related business
Manufacturer
Unknown
Mission
Spacecraft
Bus & Motor
Unknown
Mass
Unknown
Launch date (UTC)
1974-11-15 (51 years ago)
Launch vehicle
Unknown
Launch site
Air Force Western Test Range (AFWTR)
Object type
Payload
Rocket body
Debris
Shape & HBR
Unknown shape, 1.1 m
Radar Cross Section
Small (<0.1 m²)

Expand to show TLE details & history
Last TLE update: 14 hours ago

TLE from 14 hours ago
0 THORAD DELTA 1 DEB
1  8163U 74089AD  26131.03160560  .00000263  00000-0  19338-2 0  9997
2  8163 102.4855 152.4957 0327572 126.4585 236.7139 12.39390903306082
Epoch: 2026-05-11T00:45Z
TLE epoch observation values (Epoch: 2026-05-11T00:45:30.723Z)
Latitude
-0.00002°
Longitude
-87.70848°
Altitude
1,659.297 km
Speed
6.977 km/s
True Right ascension
10h 09m 58s
True Declination
0° 00' 00"
Sunlit
Object was in daylight at epoch
Visualization orbit readout
Latitude
Unknown
Longitude
Unknown
Altitude
Unknown
Speed
Unknown
Apparent Right ascension
Unknown
Apparent Declination
Unknown
Sunlit
N/A
Visualization observer readout
Local Sidereal Time
23:04:19
Azimuth
Unknown
Elevation
Unknown
Doppler factor
Unknown
Orbital elements
Apogee altitude
1,765.075 km
Perigee altitude
1,248.499 km
Semi-major axis
7,884.924 km
Eccentricity
0.03276
Inclination
102.4855°
RAAN
152.4957°
Arg. of periapsis
126.4585°
True anomaly
233.64652°
Mean anomaly
236.7139°
Eccentric anomaly
235.17323°
Mean motion
3.09989 °/min
Orbital period
116.13 mins
BSTAR
0.0019338
Loading maneuver chart data...
Computing Atmospheric mass density...

Documentation

Showing up to 5 results
|